Regional Weather Roundup
Issued by NWS

Home | Current Version | Previous Version | Text Only | Print | Product List | Glossary Off
Versions: 1 2 3 4 5 6 7 8 9 10 11 12 13 14 15 16 17 18 19 20 21 22 23 24 25 26 27 28 29 30 31 32 33 34 35 36 37 38 39 40 41 42 43 44 45 46 47 48 49 50

146
ASUS43 KLOT 212004
RWRIL

ILLINOIS REGIONAL WEATHER ROUNDUP
NATIONAL WEATHER SERVICE CHICAGO/ROMEOVILLE IL
300 PM CDT FRI JUL 21 2017

NOTE: "FAIR" INDICATES FEW OR NO CLOUDS BELOW 12,000 FEET WITH NO
SIGNIFICANT WEATHER AND/OR OBSTRUCTIONS TO VISIBILITY.

* THESE STATIONS ARE NOT UNDER NWS QUALITY CONTROL. THEY ALSO MAY NOT
  REPORT WEATHER SUCH AS PRECIPITATION OR FOG.

ILZ001-002-007-009-015-016-024-212100-
NORTHWEST ILLINOIS

CITY           SKY/WX    TMP DP  RH WIND       PRES   REMARKS
MOLINE         SUNNY     91  79  67 SE13G18   29.86F HX 107
STERLING*      MOSUNNY   88  76  67 SE8       29.90F HX  99
SAVANNA*       PTSUNNY   83  74  75 NE9       29.91F HX  89
$$

ILZ003-004-008-010-011-017-018-212100-
NORTH CENTRAL ILLINOIS

CITY           SKY/WX    TMP DP  RH WIND       PRES   REMARKS
ROCKFORD       CLOUDY    83  74  74 VRB3      29.97R THUNDER HX  89
FREEPORT*      CLOUDY    74  71  91 NE8       29.97F
ROCHELLE*      CLOUDY    85  78  79 S7        29.93F HX  95
DE KALB*       CLOUDY    83  76  78 S8        29.95F HX  91
PERU*          MOSUNNY  N/A N/A N/A S10       29.92F
$$

ILZ005-006-012>014-019>023-212100-
NORTHEAST ILLINOIS

CITY           SKY/WX    TMP DP  RH WIND       PRES   REMARKS
CHICAGO-OHARE  CLOUDY    87  70  56 VRB6      29.93F HX  92
CHICAGO-MIDWAY PTSUNNY   89  69  51 S9        29.94F HX  93
AURORA         CLOUDY    85  75  72 SE7       29.94F HX  93
LANSING*       PTSUNNY   86  69  56 SW8       29.96F HX  90
JOLIET*        PTSUNNY   88  75  66 S3        29.94F HX  97
WAUKEGAN       CLOUDY    82  66  58 SE8       29.94F HX  84
DUPAGE AIRPORT CLOUDY    86  73  65 S7        29.93F HX  93
WHEELING       CLOUDY    86  72  62 SE8       29.94F HX  92
MORRIS*        MOSUNNY   85  77  76 SE6       29.93F HX  96
ROMEOVILLE*    MOSUNNY   85  71  63 S6        29.95F HX  89
NORTHERLY ISL    N/A     80  71  74 CALM        N/A  HX  84
$$

LMZ740>746-212100-
SOUTHERN LAKE MICHIGAN

STATION/POSITION SKY/WX   TEMP    WIND        PRES    VSBY  WAVE
                          AIR SEA DIR/SP/G                  HT/PER
                          (F)     (DEG/KT/KT) (MB)    (MI)  (FT/S)
SOUTHERN BUOY              73 73  100/  6/  8 1014.5          0
WILMETTE HARBOR            75 74   90/  8/  8   N/A           1
HARRISON CRIB              78      90/  9/ 10   N/A
BURNHAM HARBOR             79                   N/A
CALUMET HARBOR             82      10/  3/  7 1014.3F
BURNS HARBOR               81     160/  2/  6 1015.2S
MICHIGAN CITY              83     190/  1/  4   N/A
MICHIGAN CITY 6N           79 78   20/  4/  4   N/A           0
ST. JOSEPH                 77 77   10/  6/  6 1014.8R         0
$$

ILZ025>027-034>036-040-047-049-050-058-095>099-212100-
WEST-CENTRAL ILLINOIS

CITY           SKY/WX    TMP DP  RH WIND       PRES   REMARKS
QUINCY         MOSUNNY   98  72  42 S13       29.90F HX 107
GALESBURG*     SUNNY     92  77  61 S10       29.91F HX 105
MACOMB*        MOSUNNY   93  77  59 S7        29.92F HX 106
JACKSONVILLE*  MOSUNNY   93  74  54 SW7       29.92F HX 104
PITTSFIELD*    MOSUNNY   96  72  46 S5        29.93F HX 105
$$

ILZ028>032-037-038-041>044-048-051>054-059>061-212100-
CENTRAL ILLINOIS

CITY           SKY/WX    TMP DP  RH WIND       PRES   REMARKS
PONTIAC        SUNNY     89  82  79 S8        29.94F HX 110
BLOOMINGTON    MOSUNNY   93  76  57 S9        29.95F HX 105
DECATUR        CLOUDY    93  77  59 VRB5      29.95F HX 107
PEORIA         SUNNY     93  79  63 S9        29.91F HX 110
LACON*         SUNNY     91  79  69 SW6       29.90F HX 107
LINCOLN*       CLOUDY    95  80  63 S8        29.93F HX 115
SPRINGFIELD    MOSUNNY   95  78  58 SW7       29.93F HX 111
TAYLORVILLE    MOSUNNY   94  77  58 CALM      29.95F HX 108
$$

ILZ033-039-045-046-055>057-062-063-212100-
EAST-CENTRAL ILLINOIS

CITY           SKY/WX    TMP DP  RH WIND       PRES   REMARKS
CHAMPAIGN      MOSUNNY   92  79  65 SW7       29.96F HX 108
MATTOON        SUNNY     96  76  52 VRB5      29.95F HX 109
PARIS*         CLOUDY    89  79  72 E8        29.98F HX 105
$$

ILZ079-100>102-212100-
SOUTHWEST ILLINOIS

CITY           SKY/WX    TMP DP  RH WIND       PRES   REMARKS
ALTON          MOSUNNY   97  75  49 SW12      29.94F HX 109
BELLEVILLE     SUNNY     99  75  46 SW8       29.94F HX 111
CAHOKIA*       MOSUNNY  100  69  36 MISG      29.92F HX 106
SPARTA*        PTSUNNY   95  73  48 SW9       29.96F HX 104
$$

ILZ064>066-069>071-074>076-080>082-084>086-088>090-092>094-212100-
SOUTH-CENTRAL ILLINOIS

CITY           SKY/WX    TMP DP  RH WIND       PRES   REMARKS
CARBONDALE     SUNNY     95  76  53 W5        29.96F HX 108
CAIRO*         MOSUNNY   95  75  52 S7        29.96F HX 107
EFFINGHAM*     SUNNY     99  71  39 SW3       29.96F HX 106
MARION         PTSUNNY   95  77  55 S7        29.97F HX 109
MT. VERNON     SUNNY     99  77  49 S9        29.94F HX 114
CENTRALIA*     MOSUNNY   98  76  48 W5        29.94F HX 111
SALEM*         SUNNY     99  73  44 W3        29.94F HX 109
METROPOLIS*    SUNNY     96  78  56 SW7       29.97F HX 111
$$

ILZ067-068-072-073-078-083-087-091-212100-
SOUTHEAST ILLINOIS

CITY           SKY/WX    TMP DP  RH WIND       PRES   REMARKS
LAWRENCEVILLE  MOSUNNY   94  77  57 S7        29.96F HX 108
FLORA*         MOSUNNY   94  78  58 S7        29.95F HX 109
FAIRFIELD*     SUNNY     96  78  57 S7        29.94F HX 112
HARRISBURG*    CLOUDY    96  77  54 SW6       29.96F HX 111
ROBINSON*      SUNNY     92  78  63 S5        29.96F HX 108
CARMI*         SUNNY     93  80  67 S3        29.95F HX 112
$$

ABBREVIATIONS USED IN REMARKS
   TC - TEMPERATURE IN CELSIUS
  WCI - WIND CHILL INDEX
   HX - HEAT INDEX
  VSB - VISIBILITY
$$





USA.gov is the U.S. government's official web portal to all federal, state and local government web resources and services.